Вернуться в каталог

STARLINK-31920

АктивенСвязьVLEO
NORAD 59907·PAYLOAD·🇺🇸 United States

Запущен May 28, 2024 с Cape Canaveral Space Force Station

Loading…

Ближайшие Пролёты (ближайшие 24 часа)

TLE

СвежийSource: CelesTrak SupGP

Эпоха: Sep 14, 2026, 23:01 UTC

1 59907C 24100Y   26257.95951389  .00146010  00000+0  94195-3 0  2577
2 59907  42.9855  57.6107 0029367 307.1162  12.2237 15.74452241    11

Отслеживайте STARLINK-31920 в реальном времени с AllMySat

Download on the App Store